#timestamp,LO_Frequency,Hit 
1501225255.2,286047007.3,P
1501225275.0,286047006.6,P
1501225275.9,286047006.6,P
1501225295.7,286047007.6,P
1501225315.6,286047000.2,N
1501225335.4,286046996.5,N
1501225355.3,286046997.1,N
1501225375.1,286046997.7,N
1501225376.0,286046997.7,N
1501225395.8,286046995.7,N
1501225415.7,286046998.0,N
1501225435.5,286046993.4,N
1501225455.4,286046997.2,N
1501225475.2,286046997.1,N
1501225495.0,286046999.5,N
1501225495.9,286046999.5,N
1501225515.8,286046997.0,N
1501225535.6,286047000.7,N
1501225555.4,286047002.4,N
1501225575.3,286047002.2,N
1501225595.1,286047002.4,N
1501225615.9,286047002.0,N
1501225635.7,286047003.8,N
1501225655.5,286047004.0,N
1501225675.4,286047003.7,N
1501225695.2,286047000.4,N
1501225715.0,286047000.5,N
1501225715.9,286047000.5,N
1501225735.8,286047001.7,N
1501225755.6,286047003.9,N
1501225775.5,286047003.9,N
1501225795.3,286047001.8,N
1501225815.1,286047002.8,N
1501225835.9,286047002.6,N
1501225855.7,286047000.3,N
1501225875.5,286047002.2,N
1501225895.4,286047002.0,N
1501225915.2,286047005.2,N
1501225935.1,286047004.9,N
1501225936.0,286047004.9,N
1501225955.8,286047003.2,N
1501225975.6,286047002.0,N
1501225995.5,286047000.6,N
1501226015.3,286046999.8,N
1501226035.2,286047002.2,N
1501226055.9,286047001.0,N
1501226075.7,286047000.1,N
1501226095.6,286047002.6,N
1501226115.4,286047002.1,N
1501226135.2,286047000.6,N
1501226155.1,286046998.2,N
1501226156.0,286046998.2,N
1501226175.8,286046996.8,N
1501226195.7,286046998.2,N
1501226215.5,286047000.2,N
1501226235.3,286047002.8,N
1501226255.2,286046999.2,N
1501226275.0,286046997.9,N
1501226275.9,286046997.9,N
1501226295.8,286046999.4,N
1501226315.6,286046998.6,N
1501226335.4,286047001.1,N
1501226355.3,286047004.4,N
1501226375.1,286047002.5,N
1501226395.8,286047000.4,N
1501226415.7,286046998.4,N
1501226435.5,286047001.2,N
1501226455.4,286046998.7,N
1501226475.2,286046999.5,N
1501226495.0,286046995.7,N
1501226495.9,286046995.7,N
1501226515.8,286046998.5,N
1501226535.6,286047000.8,N
1501226555.4,286046999.6,N
1501226575.3,286046997.8,N
1501226595.1,286046994.9,N
1501226615.9,286046993.7,N
1501226635.7,286046995.4,N
1501226655.5,286046999.0,N
1501226675.4,286046996.6,N
1501226695.2,286047000.3,N
1501226715.0,286046998.5,N
1501226715.9,286046998.5,N
1501226735.8,286046999.7,P
1501226755.6,286047003.3,P
1501226775.5,286047000.2,N
1501226795.3,286047002.3,N
1501226815.1,286047005.2,P
1501226835.9,286047005.4,N
1501226855.7,286047003.5,N
1501226875.6,286047000.4,N
1501226895.4,286047000.7,N
1501226915.2,286047000.2,N
1501226935.1,286047003.0,N
1501226936.0,286047003.0,N
1501226955.8,286047003.6,N
1501226975.6,286047000.5,N
1501226995.5,286046999.2,N
1501227015.3,286046993.9,P
1501227035.2,286046990.0,N
1501227055.9,286046992.6,N
1501227075.7,286046993.7,N
1501227095.6,286046993.6,N
1501227115.4,286046994.4,N
1501227135.3,286046994.7,N
1501227155.1,286046994.4,N
1501227156.0,286046994.4,N
1501227175.8,286046994.2,N
1501227195.7,286046996.3,N
1501227215.5,286046993.2,N
1501227235.3,286046991.5,P
1501227255.2,286046998.4,N
1501227275.0,286047001.8,N
1501227275.9,286047001.8,N
1501227295.8,286047001.6,N
1501227315.6,286047005.6,N
1501227335.4,286047007.0,N
1501227355.3,286047006.6,N
1501227375.1,286047011.9,N
1501227395.8,286047011.6,N
1501227415.7,286047011.6,N
1501227435.5,286047014.4,N
1501227455.4,286047013.4,N
1501227475.2,286047009.5,N
1501227495.0,286047010.0,N
1501227495.9,286047010.0,N
1501227515.8,286047009.5,N
1501227535.6,286047009.7,N
1501227555.5,286047010.3,N
1501227575.3,286047008.7,N
1501227595.1,286047004.5,N
1501227615.9,286047004.3,N
1501227635.7,286047003.1,N
1501227655.5,286047003.4,N
1501227675.4,286047003.2,N
1501227695.2,286047005.7,N
1501227715.1,286047001.9,N
1501227716.0,286047001.9,N
1501227735.8,286046998.3,N
1501227755.6,286046997.9,N
1501227775.5,286047001.2,N
1501227795.3,286047000.6,N
1501227815.1,286046998.3,N
1501227835.9,286047000.1,N
1501227855.7,286046998.5,N
1501227875.6,286046998.7,N
1501227895.4,286046998.1,N
1501227915.2,286047002.5,N
1501227935.1,286047002.0,N
1501227936.0,286047002.0,N
1501227955.8,28601501228015.6,286046994.6,P
1501228035.5,286046991.9,P
1501228055.3,286046992.4,P
1501228075.1,286046994.5,P
1501228095.9,286047001.3,N
1501228115.7,286047004.5,N
1501228135.6,286047008.7,N
1501228155.4,286047007.1,N
1501228175.2,286047007.2,N
1501228195.1,286047006.1,N
1501228196.0,286047006.1,N
1501228215.8,286047006.0,N
1501228235.6,286047006.0,N
1501228255.5,286047009.8,N
1501228295.9,286047011.2,N
1501228315.7,286047013.2,N
1501228335.5,286047017.1,P
1501228355.4,286047009.2,N
1501228375.2,286047006.0,N
1501228395.0,286047001.3,N
1501228396.0,286047001.3,N
1501228415.8,286047005.6,N
1501228435.6,286047004.3,N
1501228455.5,286047000.6,N
1501228475.3,286046998.5,N
1501228495.1,286046999.4,N
1501228515.9,286046996.9,N
1501228535.7,286046996.5,N
1501228555.6,286047000.8,N
1501228575.4,286047000.0,N
1501228595.2,286047002.6,N
1501228615.1,286047000.2,N
1501228616.0,286047000.2,N
1501228635.8,286046996.9,N
1501228655.6,286046997.8,N
1501228675.5,286046995.2,N
1501228695.3,286046999.5,N
1501228715.2,286046994.9,N
1501228735.9,286046998.7,N
1501228755.7,286046999.7,N
1501228775.6,286047000.7,N
1501228795.4,286047002.3,N
